HYLAS 2

Last updated on Tue Sep 22 2026 00:03:12 GMT+0000 (Coordinated Universal Time)

1 38741U 12043B 26264.41479701 -.00000077 00000+0 00000+0 0 9999 2 38741 2.6669 79.7853 0003819 158.2620 256.5033 1.00522309 51741
UTC large
Height (km)
Speed (km/s)
/
Latitude / Longitude
Inclination (degrees)
Orbital Period (minutes)
Azimuth
Elevation
Range (km)
Doppler Factor

Next 0 passes for location: London (51.5072 / 0.1276)

No passes found over London.
HYLAS 2